カタログに戻る

STARLINK-5681

運用中通信VLEO
NORAD 55469·PAYLOAD·🇺🇸 United States

打ち上げ Feb 2, 2023 から Cape Canaveral Space Force Station

Loading…

次のパス (今後24時間)

TLE

最新Source: CelesTrak SupGP

元期: Sep 15, 2026, 01:55 UTC

1 55469C 23015W   26258.08034722  .00015948  00000+0  57761-3 0  2582
2 55469  43.0013 339.0354 0001511 266.4315 256.5448 15.27572087    13

AllMySatでSTARLINK-5681をリアルタイム追跡

Download on the App Store